Tracking 29892 objects as of 21-Nov-2024
HD Live streaming from Space Station
objects crossing your sky now

SL-16 DEB

Track SL-16 DEB now!
10-day predictions


NORAD ID: 22358
Int'l Code: 1992-093AX
Perigee: 847.9 km
Apogee: 1,060.2 km
Inclination: 71.2 °
Period: 104.0 minutes
Semi major axis: 7325 km
RCS: 0.932 m2 (medium)
Launch date: December 25, 1992
Source: Commonwealth of Independent States (former USSR) (CIS)
Launch site: TYURATAM MISSILE AND SPACE COMPLEX (TTMTR)

Note: This is SATELLITE DEBRIS
Your satellite tracking list
Your tracking list is empty




NASA's NSSDC Master Catalog

Two Line Element Set (TLE):
1 22358U 92093AX  24325.91267712  .00000107  00000-0  12162-3 0  9997
2 22358  71.2272 290.7649 0144875 146.0371 245.5779 13.84795581611470
Source of the keplerian elements: AFSPC